Regional Weather Roundup
Issued by NWS Huntsville, AL

Home | Current Version | Previous Version | Text Only | Print | Product List | Glossary On
Versions: 1 2 3 4 5 6 7 8 9 10 11 12 13 14 15 16 17 18 19 20 21 22 23 24 25 26 27 28 29 30 31 32 33 34 35 36 37 38 39 40 41 42 43 44 45 46 47 48 49 50
000
ASUS44 KHUN 310910
RWRHUN

WEATHER ROUNDUP FOR THE TENNESSEE VALLEY
NATIONAL WEATHER SERVICE HUNTSVILLE AL
400 AM CDT FRI JUL 31 2015

ALZ001>004-311000-
NORTHWEST ALABAMA

CITY           SKY/WX    TMP DP  RH WIND       PRES   REMARKS
COURTLAND HCN    N/A     70 N/A N/A CALM        N/A
BANKHEAD NF      N/A     66  61  82 CALM        N/A
RUSSELLVILLE     N/A     66 N/A N/A MISG        N/A
SHOALS AIRPORT CLEAR     73  59  61 VRB3      30.05R
SHOALS TVA RES   N/A     70 N/A N/A MISG        N/A
$$

ALZ005>007-016-311000-
NORTH CENTRAL ALABAMA

CITY           SKY/WX    TMP DP  RH WIND       PRES   REMARKS
CULLMAN AG STN   N/A     68 N/A N/A N5          N/A
DECATUR AP     CLEAR     63  62  97 CALM      30.04R
HUNTSVILLE AP  CLEAR     71  61  70 N7        30.03R
HUN NWS/UAH      N/A     71  59  65 NE5         N/A
MERIDIANVILLE  CLEAR     63  59  88 CALM      30.04S
REDSTONE ARSN  CLEAR     71  62  71 NE10      30.02R
VINEMONT AP    FAIR      64  61  91 CALM      30.05S
$$

ALZ008>010-311000-
NORTHEAST ALABAMA

CITY           SKY/WX    TMP DP  RH WIND       PRES   REMARKS
ALBERTVILLE    CLEAR     70  64  83 N8        30.01S
FORT PAYNE     CLEAR     63  61  94 CALM      30.01R
SCOTTSBORO AP  CLEAR     68  63  83 NE3       30.02S
SCOTTSBORO HCN   N/A     64 N/A N/A MISG        N/A
VALLEY HEAD      N/A     63 N/A N/A MISG        N/A
$$

TNZ076-096-097-311000-
SOUTHEASTERN MIDDLE TENNESSEE

CITY           SKY/WX    TMP DP  RH WIND       PRES   REMARKS
TULLAHOMA      CLEAR     66  57  72 CALM      30.07S
WINCHESTER     CLEAR     64  61  88 CALM      30.06S
$$

...SURROUNDING SITES...

CITY           SKY/WX    TMP DP  RH WIND       PRES   REMARKS
ATLANTA        CLEAR     74  66  76 NW6       29.95S
ANNISTON       CLEAR     75  64  68 NE7       29.97S
BIRMINGHAM     CLEAR     70  64  81 N6        30.01R
CHATTANOOGA    CLEAR     73  60  63 N8        30.02R
DALTON         CLEAR     70  64  83 N12G17    29.99R
GADSDEN        CLEAR     72  59  64 N7        29.98F
GOLDEN TRNGL   CLEAR     70  63  78 N8        30.00S
HALEYVILLE     FAIR      69  62  78 N5        30.06R
JACKSON TN     PTCLDY    66  62  87 CALM      30.08R
MEMPHIS        PTCLDY    74  63  68 N7        30.07S
NASHVILLE      CLEAR     69  63  81 N3        30.07S
ROME           CLEAR     74  61  63 N8        29.97R
SAVANNAH       CLEAR     63  32  31 CALM      30.07R
TUPELO         CLEAR     68  63  84 NE7       30.04R
TUSCALOOSA     CLEAR     74  63  68 N6        29.97S
$$

...GULF COAST WEATHER...

CITY           SKY/WX    TMP DP  RH WIND       PRES   REMARKS
GULFPORT       CLOUDY    77  73  87 N9        29.89F
PASCAGOULA     MOCLDY    75  73  93 N6        29.89F
MOBILE         MOCLDY    75  74  96 N8        29.91F
GULF SHORES    MOSUNNY   77  73  87 CALM      29.88S
PENSACOLA      PTCLDY    77  73  87 N3        29.87F
DESTIN         PTCLDY    81  78  91 N3        29.87F
PANAMA CITY    PTCLDY    78  77  97 NE5       29.87F
APPALACHICOLA  CLEAR     79  76  90 CALM      29.88S
$$




USA.gov is the U.S. government's official web portal to all federal, state and local government web resources and services.